W9ESR Weather Reports


time (UTC)temp
F
wind
direction
speed
knots
gust
knots
rain 1hr
in
rain 24hr
in
rain mn
in
humidity
%
barometer
mb
20260906190746 85 110 3.5 3.5 0.00 0.00 0.00 74
20260906190240 85 148 1.7 3.5 0.00 0.00 0.00 75
20260906185739 85 134 1.7 2.6 0.00 0.00 0.00 73
20260906185238 85 149 1.7 2.6 0.00 0.00 0.00 74
20260906184733 85 176 0.9 3.5 0.00 0.00 0.00 74
20260906184228 85 170 0.9 2.6 0.00 0.00 0.00 75
20260906183724 85 129 1.7 3.5 0.00 0.00 0.00 75
20260906183221 85 169 1.7 1.7 0.00 0.00 0.00 75
20260906182720 85 186 0.9 1.7 0.00 0.00 0.00 75
20260906182216 85 161 3.5 5.2 0.00 0.00 0.00 75
20260906181711 85 163 1.7 2.6 0.00 0.00 0.00 76
20260906181208 85 196 1.7 2.6 0.00 0.00 0.00 75
20260906180708 85 177 3.5 5.2 0.00 0.00 0.00 75
20260906180202 84 148 2.6 7.0 0.00 0.00 0.00 75
20260906175701 85 179 3.5 6.1 0.00 0.00 0.00 74
20260906175156 84 176 3.5 6.1 0.00 0.00 0.00 74
20260906174654 84 184 5.2 6.1 0.00 0.00 0.00 74
20260906174149 84 181 3.5 5.2 0.00 0.00 0.00 74
20260906173644 83 123 3.5 6.1 0.00 0.00 0.00 76
20260906173140 83 188 4.3 6.1 0.00 0.00 0.00 78
20260906172639 83 158 5.2 6.1 0.00 0.00 0.00 73
20260906172135 83 199 3.5 6.1 0.00 0.00 0.00 74
20260906171634 83 158 3.5 6.1 0.00 0.00 0.00 75
20260906171130 83 170 4.3 6.1 0.00 0.00 0.00 76
20260906170626 83 181 3.5 3.5 0.00 0.00 0.00 76
20260906170125 83 182 3.5 3.5 0.00 0.00 0.00 72
20260906165622 83 174 3.5 5.2 0.00 0.00 0.00 73
20260906165117 83 174 4.3 5.2 0.00 0.00 0.00 73
20260906164616 83 173 3.5 6.1 0.00 0.00 0.00 74
20260906164112 84 170 3.5 6.1 0.00 0.00 0.00 73
20260906163607 83 200 3.5 3.5 0.00 0.00 0.00 75
20260906163103 82 136 3.5 5.2 0.00 0.00 0.00 76
20260906162600 82 170 1.7 3.5 0.00 0.00 0.00 76
20260906162055 82 134 5.2 6.1 0.00 0.00 0.00 77
20260906161550 82 143 4.3 6.1 0.00 0.00 0.00 77
20260906161048 83 180 4.3 5.2 0.00 0.00 0.00 76
20260906160547 82 133 3.5 3.5 0.00 0.00 0.00 77
20260906160046 82 180 2.6 5.2 0.00 0.00 0.00 77
20260906155544 82 161 3.5 5.2 0.00 0.00 0.00 77
20260906155040 81 122 0.9 1.7 0.00 0.00 0.00 81
20260906154535 81 115 1.7 2.6 0.00 0.00 0.00 85
20260906154034 81 65 1.7 3.5 0.00 0.00 0.00 85
20260906153533 80 120 2.6 2.6 0.00 0.00 0.00 85
20260906153029 80 72 3.5 5.2 0.00 0.00 0.00 87
20260906152528 80 58 4.3 6.1 0.00 0.00 0.00 87
20260906152027 80 116 2.6 3.5 0.00 0.00 0.00 84
20260906151523 80 143 1.7 1.7 0.00 0.00 0.00 85
20260906151024 78 92 0.0 2.6 0.00 0.00 0.00 90
20260906150519 78 70 3.5 5.2 0.00 0.00 0.00 90
20260906150014 80 91 1.7 3.5 0.00 0.00 0.00 86
20260906145513 79 104 0.9 0.9 0.00 0.00 0.00 85
20260906145009 78 38 0.0 1.7 0.00 0.00 0.00 86
20260906144502 78 74 1.7 1.7 0.00 0.00 0.00 87
20260906143957 78 161 0.9 1.7 0.00 0.00 0.00 87
20260906143453 77 229 0.9 2.6 0.00 0.00 0.00 88
20260906142949 77 185 1.7 2.6 0.00 0.00 0.00 88
20260906142443 77 216 1.7 2.6 0.00 0.00 0.00 89
20260906141938 76 253 2.6 3.5 0.00 0.00 0.00 90
20260906141438 76 165 5.2 6.1 0.00 0.00 0.00 90
20260906140938 76 146 4.3 7.0 0.00 0.00 0.00 91
20260906140432 76 136 7.0 8.7 0.00 0.00 0.00 89
20260906135930 76 128 6.1 7.8 0.00 0.00 0.00 89
20260906135429 76 148 7.0 7.8 0.00 0.00 0.00 89
20260906134926 76 159 6.1 7.8 0.00 0.00 0.00 90
20260906134421 76 134 3.5 8.7 0.00 0.00 0.00 90
20260906133915 76 130 6.1 7.8 0.00 0.00 0.00 90
20260906133411 76 117 5.2 8.7 0.00 0.00 0.00 90
20260906132907 76 115 4.3 7.8 0.00 0.00 0.00 90
20260906132402 76 127 4.3 7.0 0.00 0.00 0.00 90
20260906131857 76 145 5.2 7.0 0.00 0.00 0.00 91
20260906131353 76 157 4.3 7.0 0.00 0.00 0.00 91
20260906130848 76 119 3.5 7.0 0.00 0.00 0.00 91
20260906130348 76 136 6.1 7.0 0.00 0.00 0.00 91
20260906125847 75 137 5.2 7.0 0.00 0.00 0.00 91
20260906125344 75 160 4.3 7.0 0.00 0.00 0.00 92
20260906124839 74 154 3.5 7.0 0.00 0.00 0.00 92
20260906124335 74 138 6.1 7.8 0.00 0.00 0.00 92
20260906123834 74 139 3.5 6.1 0.00 0.00 0.00 92
20260906123329 74 151 3.5 6.1 0.00 0.00 0.00 92
20260906122829 74 140 3.5 6.1 0.00 0.00 0.00 92
20260906122324 74 113 5.2 7.8 0.00 0.00 0.00 91
20260906121821 74 124 4.3 7.0 0.00 0.00 0.00 91
20260906121316 74 140 4.3 5.2 0.00 0.00 0.00 91
20260906120813 74 149 3.5 5.2 0.00 0.00 0.00 92
20260906120308 74 126 5.2 6.1 0.00 0.00 0.00 91
20260906115804 74 152 4.3 6.1 0.00 0.00 0.00 91
20260906115300 75 149 5.2 6.1 0.00 0.00 0.00 91
20260906114759 75 115 4.3 7.0 0.00 0.00 0.00 91
20260906114254 75 138 5.2 7.0 0.00 0.00 0.00 91
20260906113749 75 119 4.3 6.1 0.00 0.00 0.00 91
20260906113248 75 121 4.3 7.0 0.00 0.00 0.00 90
20260906112748 75 125 3.5 5.2 0.00 0.00 0.00 90
20260906112245 74 129 4.3 5.2 0.00 0.00 0.00 91
20260906111744 74 136 3.5 6.1 0.00 0.00 0.00 92
20260906111244 74 146 4.3 5.2 0.00 0.00 0.00 92
20260906110739 74 158 3.5 3.5 0.00 0.00 0.00 92
20260906110235 74 150 3.5 3.5 0.00 0.00 0.00 92
20260906105734 74 145 4.3 5.2 0.00 0.00 0.00 92
20260906105231 74 149 4.3 5.2 0.00 0.00 0.00 92
20260906104731 74 155 3.5 3.5 0.00 0.00 0.00 92
20260906104230 75 152 3.5 5.2 0.00 0.00 0.00 91
20260906103727 74 154 4.3 5.2 0.00 0.00 0.00 91
20260906103222 74 162 3.5 5.2 0.00 0.00 0.00 91
20260906102718 75 153 4.3 5.2 0.00 0.00 0.00 91
20260906102217 75 150 2.6 3.5 0.00 0.00 0.00 91
20260906101712 75 135 3.5 5.2 0.00 0.00 0.00 90
20260906101207 75 152 6.1 7.0 0.00 0.00 0.00 90
20260906100703 75 141 4.3 6.1 0.00 0.00 0.00 90
20260906100202 75 144 4.3 5.2 0.00 0.00 0.00 90
20260906095657 75 151 3.5 3.5 0.00 0.00 0.00 91
20260906095152 75 127 3.5 5.2 0.00 0.00 0.00 91
20260906094651 75 134 3.5 5.2 0.00 0.00 0.00 91
20260906094147 75 143 3.5 3.5 0.00 0.00 0.00 91
20260906093644 74 143 3.5 3.5 0.00 0.00 0.00 91
20260906093143 75 144 3.5 3.5 0.00 0.00 0.00 91
20260906092639 75 133 3.5 3.5 0.00 0.00 0.00 91
20260906092138 75 141 3.5 3.5 0.00 0.00 0.00 91
20260906091635 75 148 3.5 3.5 0.00 0.00 0.00 91
20260906091131 75 140 4.3 5.2 0.00 0.00 0.00 91
20260906090627 75 151 3.5 3.5 0.00 0.00 0.00 91
20260906090126 75 148 3.5 5.2 0.00 0.00 0.00 91
20260906085625 75 143 3.5 3.5 0.00 0.00 0.00 91
20260906085120 75 144 2.6 3.5 0.00 0.00 0.00 91
20260906084615 75 144 3.5 3.5 0.00 0.00 0.00 91
20260906084113 76 170 2.6 3.5 0.00 0.00 0.00 90
20260906083609 76 130 3.5 6.1 0.00 0.00 0.00 89
20260906083109 76 145 2.6 6.1 0.00 0.00 0.00 88
20260906082604 76 135 3.5 5.2 0.00 0.00 0.00 89
20260906082100 76 145 2.6 3.5 0.00 0.00 0.00 90
20260906081556 76 151 3.5 5.2 0.00 0.00 0.00 89
20260906081051 76 140 5.2 6.1 0.00 0.00 0.00 88
20260906080548 76 150 5.2 7.0 0.00 0.00 0.00 88
20260906080043 76 131 4.3 6.1 0.00 0.00 0.00 89
20260906075537 76 146 3.5 5.2 0.00 0.00 0.00 88
20260906075032 76 145 4.3 7.0 0.00 0.00 0.00 88
20260906074527 76 122 5.2 6.1 0.00 0.00 0.00 88
20260906074025 76 154 3.5 6.1 0.00 0.00 0.00 89
20260906073520 76 146 3.5 3.5 0.00 0.00 0.00 89
20260906073016 76 155 2.6 2.6 0.00 0.00 0.00 89
20260906072511 76 163 2.6 6.1 0.00 0.00 0.00 88
20260906072007 76 128 4.3 5.2 0.00 0.00 0.00 88
20260906071503 76 155 3.5 5.2 0.00 0.00 0.00 88
20260906070958 76 142 3.5 5.2 0.00 0.00 0.00 88
20260906070455 76 123 4.3 5.2 0.00 0.00 0.00 89
20260906065950 76 155 3.5 3.5 0.00 0.00 0.00 89
20260906065449 76 150 3.5 5.2 0.00 0.00 0.00 89
20260906064945 76 148 2.6 3.5 0.00 0.00 0.00 88
20260906064442 76 149 3.5 5.2 0.00 0.00 0.00 88
20260906063942 76 144 3.5 3.5 0.00 0.00 0.00 88
20260906063438 76 156 2.6 5.2 0.00 0.00 0.00 88
20260906062937 76 137 3.5 5.2 0.00 0.00 0.00 88
20260906062432 76 154 3.5 3.5 0.00 0.00 0.00 89
20260906061927 76 141 3.5 5.2 0.00 0.00 0.00 90
20260906061418 76 143 2.6 3.5 0.00 0.00 0.00 90
20260906060913 76 139 3.5 3.5 0.00 0.00 0.00 89
20260906060410 77 144 2.6 5.2 0.00 0.00 0.00 87
20260906055906 77 132 2.6 3.5 0.00 0.00 0.00 87
20260906055402 77 121 3.5 5.2 0.00 0.00 0.00 86
20260906054857 77 126 2.6 2.6 0.00 0.00 0.00 86
20260906054351 77 117 1.7 3.5 0.00 0.00 0.00 85
20260906053847 77 134 3.5 3.5 0.00 0.00 0.00 85
20260906053343 78 129 2.6 3.5 0.00 0.00 0.00 84
20260906052838 78 117 2.6 5.2 0.00 0.00 0.00 83
20260906052335 78 111 2.6 3.5 0.00 0.00 0.00 83
20260906051832 78 130 3.5 3.5 0.00 0.00 0.00 83
20260906051331 78 109 3.5 5.2 0.00 0.00 0.00 82
20260906050826 78 126 1.7 5.2 0.00 0.00 0.00 82
20260906050322 78 138 2.6 3.5 0.00 0.00 0.00 82
20260906045820 79 136 3.5 3.5 0.00 0.00 0.00 81
20260906045314 79 134 2.6 3.5 0.00 0.00 0.00 81
20260906044811 79 118 2.6 2.6 0.00 0.00 0.00 81
20260906044305 79 113 2.6 3.5 0.00 0.00 0.00 80
20260906043801 79 118 2.6 3.5 0.00 0.00 0.00 80
20260906043257 79 135 1.7 2.6 0.00 0.00 0.00 81
20260906042756 78 136 3.5 3.5 0.00 0.00 0.00 83
20260906042256 79 153 3.5 3.5 0.00 0.00 0.00 81
20260906041751 80 133 2.6 3.5 0.00 0.00 0.00 80
20260906041246 80 122 2.6 2.6 0.00 0.00 0.00 79
20260906040742 80 120 2.6 2.6 0.00 0.00 0.00 79
20260906040237 81 117 2.6 3.5 0.00 0.00 0.00 78
20260906035732 81 121 2.6 2.6 0.00 0.00 0.00 78
20260906035228 82 99 3.5 3.5 0.00 0.00 0.00 77
20260906034727 82 125 1.7 1.7 0.00 0.00 0.00 77
20260906034223 82 126 1.7 2.6 0.00 0.00 0.00 77
20260906033718 81 116 1.7 1.7 0.00 0.00 0.00 77
20260906033218 81 158 0.0 0.0 0.00 0.00 0.00 78
20260906032715 80 158 0.0 0.9 0.00 0.00 0.00 79
20260906032215 80 157 0.9 1.7 0.00 0.00 0.00 79
20260906031710 80 161 1.7 1.7 0.00 0.00 0.00 80
20260906031206 80 155 1.7 1.7 0.00 0.00 0.00 80
20260906030705 80 153 2.6 3.5 0.00 0.00 0.00 79
20260906030201 80 161 2.6 3.5 0.00 0.00 0.00 80
20260906025700 80 169 2.6 3.5 0.00 0.00 0.00 80
20260906025200 80 167 1.7 2.6 0.00 0.00 0.00 81
20260906024654 81 174 2.6 3.5 0.00 0.00 0.00 80
20260906024153 82 147 3.5 3.5 0.00 0.00 0.00 78
20260906023649 81 163 2.6 3.5 0.00 0.00 0.00 79
20260906023149 82 164 2.6 2.6 0.00 0.00 0.00 78
20260906022644 83 138 2.6 2.6 0.00 0.00 0.00 75
20260906022140 83 142 1.7 2.6 0.00 0.00 0.00 75
20260906021636 82 148 1.7 1.7 0.00 0.00 0.00 77
20260906021135 83 167 0.9 0.9 0.00 0.00 0.00 78
20260906020635 84 149 1.7 1.7 0.00 0.00 0.00 75
20260906020130 84 137 1.7 1.7 0.00 0.00 0.00 74
20260906015624 84 138 0.0 0.0 0.00 0.00 0.00 74
20260906015123 85 137 0.0 0.0 0.00 0.00 0.00 73
20260906014623 85 137 0.9 0.9 0.00 0.00 0.00 72
20260906014119 85 137 0.0 0.0 0.00 0.00 0.00 72
20260906013614 85 137 0.9 1.7 0.00 0.00 0.00 70
20260906013109 86 133 1.7 1.7 0.00 0.00 0.00 69
20260906012605 85 110 1.7 1.7 0.00 0.00 0.00 71
20260906012105 85 141 1.7 2.6 0.00 0.00 0.00 74
20260906011601 85 146 0.0 0.9 0.00 0.00 0.00 76
20260906011101 85 145 0.0 0.9 0.00 0.00 0.00 76
20260906010556 84 145 1.7 1.7 0.00 0.00 0.00 77
20260906010052 85 151 2.6 2.6 0.00 0.00 0.00 76
20260906005551 86 148 3.5 3.5 0.00 0.00 0.00 75
20260906005051 85 153 3.5 3.5 0.00 0.00 0.00 75
20260906004550 86 166 2.6 3.5 0.00 0.00 0.00 75
20260906004045 86 165 3.5 3.5 0.00 0.00 0.00 74
20260906003540 88 157 3.5 3.5 0.00 0.00 0.00 72
20260906003037 89 146 4.3 5.2 0.00 0.00 0.00 68
20260906002537 89 137 2.6 3.5 0.00 0.00 0.00 68
20260906002032 90 143 2.6 3.5 0.00 0.00 0.00 66
20260906001527 91 124 2.6 3.5 0.00 0.00 0.00 64
20260906001021 91 131 2.6 2.6 0.00 0.00 0.00 64
20260906000517 90 143 1.7 1.7 0.00 0.00 0.00 64
20260906000012 91 148 1.7 1.7 0.00 0.00 0.00 66
20260905235512 91 165 2.6 3.5 0.00 0.00 0.00 64
20260905235007 91 149 3.5 5.2 0.00 0.00 0.00 63
20260905234503 92 157 5.2 7.0 0.00 0.00 0.00 62
20260905234002 92 142 4.3 7.0 0.00 0.00 0.00 62
20260905233458 92 157 5.2 7.0 0.00 0.00 0.00 62
20260905232956 92 149 4.3 7.0 0.00 0.00 0.00 61
20260905232453 92 167 7.8 9.6 0.00 0.00 0.00 59
20260905231949 93 155 6.1 9.6 0.00 0.00 0.00 58
20260905231444 93 140 5.2 7.8 0.00 0.00 0.00 58
20260905230940 93 149 3.5 7.0 0.00 0.00 0.00 58
20260905230438 94 164 7.8 8.7 0.00 0.00 0.00 56
20260905225937 94 148 6.1 7.8 0.00 0.00 0.00 55
20260905225432 94 141 5.2 7.0 0.00 0.00 0.00 57
20260905224927 94 149 6.1 8.7 0.00 0.00 0.00 56
20260905224423 94 143 6.1 9.6 0.00 0.00 0.00 55
20260905223922 94 145 7.0 9.6 0.00 0.00 0.00 56
20260905223420 94 130 7.8 9.6 0.00 0.00 0.00 54
20260905222914 94 126 7.8 11.3 0.00 0.00 0.00 54
20260905222414 94 90 5.2 8.7 0.00 0.00 0.00 57
20260905221910 94 140 5.2 7.8 0.00 0.00 0.00 56
20260905221406 94 167 7.8 9.6 0.00 0.00 0.00 56
20260905220902 94 171 9.6 11.3 0.00 0.00 0.00 57
20260905220358 94 158 4.3 12.2 0.00 0.00 0.00 58
20260905215857 94 141 8.7 12.2 0.00 0.00 0.00 57
20260905215353 94 131 7.0 11.3 0.00 0.00 0.00 55
20260905214849 94 138 5.2 9.6 0.00 0.00 0.00 57
20260905214344 95 159 5.2 9.6 0.00 0.00 0.00 57
20260905213839 94 127 7.8 9.6 0.00 0.00 0.00 56
20260905213335 95 174 7.8 11.3 0.00 0.00 0.00 56
20260905212835 94 157 7.8 9.6 0.00 0.00 0.00 57
20260905212330 94 150 7.8 8.7 0.00 0.00 0.00 55
20260905211830 93 108 5.2 8.7 0.00 0.00 0.00 65
20260905211325 93 108 6.1 7.8 0.00 0.00 0.00 64
20260905210822 93 56 4.3 7.0 0.00 0.00 0.00 64
20260905210321 92 90 4.3 8.7 0.00 0.00 0.00 65
20260905205820 92 83 5.2 7.8 0.00 0.00 0.00 67
20260905205315 92 62 4.3 9.6 0.00 0.00 0.00 68
20260905204815 92 84 7.0 9.6 0.00 0.00 0.00 66
20260905204311 92 73 7.8 9.6 0.00 0.00 0.00 65
20260905203809 92 49 5.2 9.6 0.00 0.00 0.00 67
20260905203306 92 43 4.3 11.3 0.00 0.00 0.00 67
20260905202800 91 85 10.4 14.8 0.00 0.00 0.00 67
20260905202255 92 86 3.5 9.6 0.00 0.00 0.00 67
20260905201751 91 49 3.5 9.6 0.00 0.00 0.00 69
20260905201246 92 53 5.2 13.0 0.00 0.00 0.00 69
20260905200741 92 57 9.6 13.9 0.00 0.00 0.00 65
20260905200237 92 44 5.2 8.7 0.00 0.00 0.00 65
20260905195735 93 40 2.6 7.8 0.00 0.00 0.00 65
20260905195230 92 83 7.0 8.7 0.00 0.00 0.00 63
20260905194726 91 59 5.2 7.0 0.00 0.00 0.00 65
20260905194226 91 57 3.5 9.6 0.00 0.00 0.00 65
20260905193725 92 75 7.0 11.3 0.00 0.00 0.00 63
20260905193220 91 66 5.2 13.0 0.00 0.00 0.00 64
20260905192715 93 50 7.0 9.6 0.00 0.00 0.00 61
20260905192212 93 51 6.1 7.8 0.00 0.00 0.00 57
20260905191711 93 42 3.5 15.6 0.00 0.00 0.00 59